Miscellaneous Local Product
Issued by NWS Hastings, NE

Home | Current Version | Previous Version | Graphics & Text | Print | Product List | Glossary On
Versions: 1 2 3 4 5 6 7 8 9 10 11 12 13 14 15 16 17 18 19 20 21 22 23 24 25 26 27 28 29 30 31 32 33 34 35 36 37 38 39 40 41 42 43 44 45 46 47 48 49 50
000
AXUS43 KGID 091202
MISGRI

GID CWA HOURLY WEATHER ROUNDUP
NATIONAL WEATHER SERVICE HASTINGS NE
600 AM CST SAT DEC 09 2017

NOTE: "FAIR" INDICATES FEW OR NO CLOUDS BELOW 12,000 FEET WITH NO
SIGNIFICANT WEATHER AND/OR OBSTRUCTIONS TO VISIBILITY.

...SOUTH CENTRAL NEBRASKA...

CITY           SKY/WX    TMP DP  RH WIND       PRES   REMARKS
GRAND ISLAND   CLEAR     25  21  85 NW7       30.10R WCI  17
KEARNEY        CLEAR     31  24  75 NW12      30.12R WCI  22
HASTINGS       CLEAR     30  22  72 NW12      30.11R WCI  20
ORD            CLOUDY    32  24  72 NW12      30.09R WCI  23
YORK           CLEAR     32  25  74 N12       30.08R WCI  23
AURORA         CLEAR     28  23  79 NW10      30.09R WCI  19
LEXINGTON      CLOUDY    30  21  68 W14       30.15R WCI  20
HOLDREGE       CLOUDY    33  24  70 NW12      30.13R WCI  24
HEBRON         CLEAR     28  23  81 NW7       30.11R WCI  21

...NEBRASKA PANHANDLE...

CITY           SKY/WX    TMP DP  RH WIND       PRES   REMARKS
CHADRON        CLOUDY    30  17  58 SW7       30.22R WCI  23
ALLIANCE       CLOUDY    23  15  71 NW5       30.20R WCI  17
SCOTTSBLUFF    CLOUDY    27  12  53 NW12      30.25R WCI  17
SIDNEY         CLOUDY    30  12  47 W14       30.23R WCI  19

...WESTERN AND NORTH CENTRAL NEBRASKA...

CITY           SKY/WX    TMP DP  RH WIND       PRES   REMARKS
VALENTINE      CLEAR     27  20  75 W8        30.15R WCI  19
AINSWORTH      CLEAR     30  23  75 NW9       30.12R WCI  22
ONEILL         CLEAR     28  25  89 N10       30.10R WCI  19
BROKEN BOW     PTCLDY    33  22  63 NW13      30.11R WCI  24
IMPERIAL       CLEAR     29  14  53 W9        30.20R WCI  20
NORTH PLATTE   CLEAR     20  16  84 NW5       30.17R WCI  13
MCCOOK         CLEAR     30  18  60 NW13      30.18R WCI  20

...EASTERN NEBRASKA...

CITY           SKY/WX    TMP DP  RH WIND       PRES   REMARKS
NORFOLK        CLEAR     28  23  81 NW14      30.07R WCI  17
SO SIOUX CITY  CLOUDY    28  21  75 N20G26    30.07R WCI  15
TEKAMAH        PTCLDY    25  19  78 NW9       30.07R WCI  15
COLUMBUS       CLEAR     29  24  82 N12       30.10R WCI  19
ALBION         CLEAR     31  25  77 N8        30.08R WCI  24
OMAHA EPPLEY   CLEAR     29  21  72 NW16      30.04R WCI  17
OFFUTT AFB     CLEAR     29  22  73 NW15      30.04R WCI  18
MILLARD        CLEAR     32  24  73 NW10G17   30.05R WCI  23
LINCOLN        CLEAR     30  24  78 N10       30.09R WCI  21
NEBRASKA CITY  CLEAR     30  25  83 NW13      30.03R WCI  20
BEATRICE       CLEAR     27  23  86 NW13      30.07R WCI  16
FALLS CITY     CLEAR     31  23  72 NW13      30.04R WCI  21

...NORTHERN KANSAS...

CITY           SKY/WX    TMP DP  RH WIND       PRES   REMARKS
GOODLAND       CLEAR     29  11  47 NW12      30.21R WCI  19
HILL CITY      CLEAR     31  19  61 NW8       30.18R WCI  23
NORTON         SUNNY     28  14  54 W9        30.16R WCI  20
PHILLIPSBURG   CLEAR     34  21  60 W7        30.17R WCI  28
SMITH CENTER   CLEAR     28  21  74 NW8       30.15R WCI  20
HAYS           CLEAR     27  19  72 W8        30.18R WCI  19
RUSSELL        CLEAR     32  23  69 W8        30.15R WCI  25
CONCORDIA      CLEAR     32  23  69 NW10      30.10R WCI  24
SALINA         CLEAR     32  24  72 NW9       30.12R WCI  24
TOPEKA         CLEAR     30  25  81 NW9       30.06R WCI  22



USA.gov is the U.S. government's official web portal to all federal, state and local government web resources and services.